sat.trackr.live / text

‹ back to catalog

ONEWEB-0517

NORAD 54135 · 2022-138Y

PAYLOAD ACTIVE UNKNOWN

§ Identity

Operator
Country
UK
Launch date
2022-10-22
Launch site
SRILR
Launch vehicle
Mass (kg)
RCS (m²)

Purposes: comms

External: N2YO · Heavens-Above · Gunter

§ Orbital elements

Epoch: 2026-09-20T01:11:01.560768Z

Period
109.11 min
Inclination
87.9113°
Eccentricity
0.0002182
Mean motion
13.19725937 rev/d
Perigee alt
1,184.1 km
Apogee alt
1,187.4 km
Semi-major
7,563.9 km
B*
2.8207e-5
RAAN
286.0685°
Arg perigee
95.5480°
Mean anomaly
264.5902°
Rev number
18,934

§ Raw data

ONEWEB-05171 54135U 22138Y   26263.04932362  .00000024  00000+0  28207-4 0  99902 54135  87.9113 286.0685 0002182  95.5480 264.5902 13.19725937189348

JSON: /api/v1/satellites/54135 · /tle

For live sub-satellite position, see the globe view (requires WebGL).

§ Visibility from observer

Set your observer location to see the next 7 days of passes ≥ 10°. The values pass through the URL so the page stays shareable.

No JS? Fill the form by hand. The geolocation button needs JavaScript.